This is the latest recevied weather packets stored in our database for station/object SQ6IUS-13. If no packets are shown the sender has not sent any weather packets the latest 10 day(s).
| Time | Temp. | Humidity | Pressure | Rain* | Wind** | Luminosity | Snow |
|---|---|---|---|---|---|---|---|
| 1788510716 | 21.67° C | 100% | 1014.6 hPa | - | - | - | - |
| 1788509817 | 21.11° C | 100% | 1014.9 hPa | - | - | - | - |
| 1788508918 | 20.56° C | 100% | 1014.9 hPa | - | - | - | - |
| 1788508019 | 20° C | 100% | 1014.7 hPa | - | - | - | - |
| 1788507120 | 20° C | 100% | 1014.8 hPa | - | - | - | - |
| 1788505328 | 18.89° C | 100% | 1015.4 hPa | - | - | - | - |
| 1788503524 | 18.33° C | 100% | 1015.2 hPa | - | - | - | - |
| 1788500866 | 17.78° C | 100% | 1015.6 hPa | - | - | - | - |
| 1788499963 | 17.22° C | 100% | 1015.6 hPa | - | - | - | - |
| 1788499065 | 16.67° C | 100% | 1015.4 hPa | - | - | - | - |
| 1788498165 | 16.67° C | 100% | 1015.6 hPa | - | - | - | - |
| 1788497266 | 16.67° C | 100% | 1015.6 hPa | - | - | - | - |
| 1788496367 | 16.11° C | 100% | 1015.3 hPa | - | - | - | - |
| 1788495468 | 16.11° C | 100% | 1015.6 hPa | - | - | - | - |
| 1788494569 | 16.11° C | 100% | 1015.7 hPa | - | - | - | - |
| 1788493669 | 16.11° C | 100% | 1016 hPa | - | - | - | - |
| 1788492770 | 16.11° C | 100% | 1015.9 hPa | - | - | - | - |
| 1788491871 | 16.11° C | 100% | 1016 hPa | - | - | - | - |
| 1788490972 | 16.11° C | 100% | 1015.9 hPa | - | - | - | - |
| 1788489174 | 16.11° C | 100% | 1015.8 hPa | - | - | - | - |
| 1788488276 | 16.11° C | 100% | 1015.9 hPa | - | - | - | - |
| 1788487377 | 16.11° C | 100% | 1015.9 hPa | - | - | - | - |
| 1788484679 | 16.11° C | 100% | 1016 hPa | - | - | - | - |
| 1788483780 | 16.11° C | 100% | 1016 hPa | - | - | - | - |
| 1788481087 | 16.11° C | 100% | 1016.2 hPa | - | - | - | - |
* Rain since midnight (hover to see other rain measurements)
** Current wind speed in m/s (hover to see current wind gust speed)